20041109,000000,545965,32.829153,-119.117900,3.7,17.569,33.210,43.531,451.76,0.0,0.173, NaN, NaN, NaN,23.966,   NaN,16.15,1016.88,73.43,15.91,302.9,301.3,6.1,6.9,297.2,302.6,5.9,6.4,NaN, NaN,29.5,64.2,59.7,1099958401,1099958400,1,13.0,000001,000000,61.4,32.829180,-119.117977,NaN,NaN,NaN,17.730, NaN,NaN,NaN, NaN, NaN,NaN
20041109,000030,545995,32.830048,-119.116112,3.8,17.568,33.210,43.530,427.09,0.0,0.177, NaN, NaN, NaN,23.967,   NaN,16.15,1016.81,73.98,15.91,303.2,301.9,5.9,6.6,295.4,300.9,5.8,6.3,NaN, NaN,28.4,57.4,59.8,1099958430,1099958430,1,13.0,000030,000030,61.8,32.830100,-119.116118,NaN,NaN,NaN,17.729, NaN,NaN,NaN, NaN, NaN,NaN
20041109,000101,546026,32.830965,-119.114252,3.7,17.569,33.210,43.530,458.11,0.0,0.178, NaN, NaN, NaN,23.966,   NaN,16.14,1016.87,73.69,15.94,301.8,300.7,5.8,6.5,293.9,299.1,5.9,6.3,NaN, NaN,28.1,61.1,60.1,1099958461,1099958460,1,13.1,000060,000060,62.3,32.831018,-119.114257,NaN,NaN,NaN,17.730, NaN,NaN,NaN, NaN, NaN,NaN
20041109,000131,546056,32.831873,-119.112387,3.7,17.572,33.197,43.518,428.78,0.0,0.179, NaN, NaN, NaN,23.956,   NaN,16.16,1016.86,74.13,15.91,302.9,302.3,5.5,6.2,291.5,297.6,5.7,6.0,NaN, NaN,28.2,59.4,60.7,1099958490,1099958490,1,13.1,000090,000090,63.0,32.831925,-119.112392,NaN,NaN,NaN,17.733, NaN,NaN,NaN, NaN, NaN,NaN
20041109,000200,546086,32.832780,-119.110518,3.7,17.575,33.210,43.537,1154.69,0.0,0.194, NaN, NaN, NaN,23.965,   NaN,16.19,1016.80,74.25,15.94,305.0,304.6,5.4,6.0,290.8,297.5,5.5,5.7,NaN, NaN,27.9,62.3,60.0,1099958520,1099958520,1,13.1,000120,000120,63.0,32.832836,-119.110520,NaN,NaN,NaN,17.736, NaN,NaN,NaN, NaN, NaN,NaN
20041109,000230,546115,32.833671,-119.108647,3.7,17.577,33.210,43.539,1155.38,0.0,0.193, NaN, NaN, NaN,23.965,   NaN,16.17,1016.83,74.58,15.91,307.0,306.7,5.5,6.2,293.0,300.0,5.3,5.5,NaN, NaN,27.6,59.7,60.7,1099958550,1099958550,1,13.0,000150,000150,63.3,32.833746,-119.108643,NaN,NaN,NaN,17.738, NaN,NaN,NaN, NaN, NaN,NaN
20041109,000301,546147,32.834588,-119.106708,3.7,17.576,33.204,43.531,1145.56,0.0,0.193, NaN, NaN, NaN,23.960,   NaN,16.15,1016.82,74.51,15.91,306.7,306.1,5.6,6.2,293.8,299.9,5.4,5.6,NaN, NaN,27.6,60.0,60.8,1099958581,1099958580,1,13.0,000181,000180,63.5,32.834630,-119.106767,NaN,NaN,NaN,17.737, NaN,NaN,NaN, NaN, NaN,NaN
20041109,000331,546176,32.835445,-119.104895,3.7,17.572,33.210,43.535,1012.45,0.0,0.194, NaN, NaN, NaN,23.966,   NaN,16.15,1016.81,74.39,15.91,306.4,306.0,5.5,6.2,293.9,300.1,5.4,5.6,NaN, NaN,27.2,58.9,60.7,1099958610,1099958610,1,13.0,000210,000210,63.4,32.835510,-119.104895,NaN,NaN,NaN,17.733, NaN,NaN,NaN, NaN, NaN,NaN
20041109,000400,546205,32.836356,-119.102945,3.7,17.567,33.210,43.529,651.47,0.0,0.185, NaN, NaN, NaN,23.967,   NaN,16.14,1016.83,74.36,15.94,305.8,305.2,5.7,6.4,295.6,301.8,5.6,5.8,NaN, NaN,27.5,58.0,61.0,1099958641,1099958640,1,13.1,000241,000240,62.2,32.836388,-119.103013,NaN,NaN,NaN,17.728, NaN,NaN,NaN, NaN, NaN,NaN
20041109,000430,546236,32.837243,-119.101148,3.8,17.561,33.209,43.522,1129.44,0.0,0.196, NaN, NaN, NaN,23.968,   NaN,16.14,1016.82,75.11,15.91,304.3,303.5,5.7,6.4,294.8,300.5,5.7,6.0,NaN, NaN,27.4,60.6,59.5,1099958670,1099958670,1,13.0,000270,000270,61.9,32.837301,-119.101152,NaN,NaN,NaN,17.722, NaN,NaN,NaN, NaN, NaN,NaN
20041109,000501,546266,32.838198,-119.099228,3.7,17.557,33.214,43.524,1144.17,0.0,0.193, NaN, NaN, NaN,23.972,   NaN,16.14,1016.80,74.54,15.88,302.1,301.5,5.4,6.0,290.2,296.0,5.8,6.0,NaN, NaN,28.0,59.6,59.3,1099958701,1099958700,1,13.0,000301,000300,61.4,32.838213,-119.099298,NaN,NaN,NaN,17.718, NaN,NaN,NaN, NaN, NaN,NaN
20041109,000531,546296,32.839133,-119.097388,3.7,17.554,33.214,43.521,1162.49,0.0,0.194, NaN, NaN, NaN,23.973,   NaN,16.16,1016.82,75.00,15.91,302.9,302.3,5.5,6.2,291.3,297.5,5.7,6.0,NaN, NaN,28.0,59.1,59.0,1099958731,1099958730,1,12.9,000331,000330,61.2,32.839140,-119.097457,NaN,NaN,NaN,17.715, NaN,NaN,NaN, NaN, NaN,NaN
20041109,000600,546325,32.840041,-119.095605,3.7,17.549,33.207,43.508,1171.74,0.0,0.195, NaN, NaN, NaN,23.969,   NaN,16.13,1016.79,74.09,15.84,303.5,302.2,5.7,6.4,292.8,298.6,5.7,6.1,NaN, NaN,27.7,61.6,59.0,1099958761,1099958760,1,13.0,000360,000360,61.3,32.840086,-119.095620,NaN,NaN,NaN,17.710, NaN,NaN,NaN, NaN, NaN,NaN
20041109,000631,546356,32.841013,-119.093700,3.7,17.546,33.214,43.514,1147.13,0.0,0.193, NaN, NaN, NaN,23.976,   NaN,16.22,1016.80,75.76,15.94,304.4,302.9,5.6,6.3,291.9,297.4,5.6,6.0,NaN, NaN,27.9,55.8,59.8,1099958791,1099958790,1,13.1,000391,000390,62.4,32.841018,-119.093770,NaN,NaN,NaN,17.707, NaN,NaN,NaN, NaN, NaN,NaN
20041109,000700,546385,32.841923,-119.091835,3.7,17.545,33.214,43.514,1146.13,0.0,0.197, NaN, NaN, NaN,23.976,   NaN,16.19,1016.83,75.52,15.94,306.0,305.2,5.5,6.1,291.3,297.4,5.4,5.7,NaN, NaN,28.0,61.8,59.7,1099958821,1099958820,1,13.1,000421,000420,62.7,32.841938,-119.091905,NaN,NaN,NaN,17.706, NaN,NaN,NaN, NaN, NaN,NaN
20041109,000731,546416,32.842826,-119.089962,3.7,17.546,33.219,43.521,1120.35,0.0,0.197, NaN, NaN, NaN,23.980,   NaN,16.17,1016.83,75.49,15.96,306.3,305.5,5.7,6.3,294.2,300.1,5.4,5.7,NaN, NaN,28.4,61.3,60.4,1099958851,1099958850,1,13.1,000451,000450,62.8,32.842846,-119.090032,NaN,NaN,NaN,17.707, NaN,NaN,NaN, NaN, NaN,NaN
20041109,000802,546447,32.843755,-119.088023,3.8,17.545,33.222,43.523,1110.61,0.0,0.194, NaN, NaN, NaN,23.982,   NaN,16.14,1016.83,75.44,15.94,305.1,304.2,5.5,6.1,292.1,297.9,5.5,5.8,NaN, NaN,28.0,60.1,60.5,1099958882,1099958880,1,13.0,000482,000480,63.0,32.843745,-119.088153,NaN,NaN,NaN,17.706, NaN,NaN,NaN, NaN, NaN,NaN
20041109,000832,546477,32.844655,-119.086143,3.7,17.542,33.222,43.521,1060.93,0.0,0.197, NaN, NaN, NaN,23.983,   NaN,16.14,1016.83,75.47,15.94,304.0,303.0,5.3,5.9,290.0,295.8,5.6,5.8,NaN, NaN,28.3,60.2,60.6,1099958912,1099958910,1,13.0,000512,000510,63.5,32.844643,-119.086267,NaN,NaN,NaN,17.703, NaN,NaN,NaN, NaN, NaN,NaN
20041109,000901,546507,32.845520,-119.084320,3.7,17.539,33.223,43.518,1072.61,0.0,0.195, NaN, NaN, NaN,23.984,   NaN,16.14,1016.83,75.45,15.91,307.3,306.6,5.3,5.9,290.5,296.6,5.3,5.5,NaN, NaN,27.8,61.2,60.1,1099958941,1099958940,1,13.1,000541,000540,63.4,32.845545,-119.084377,NaN,NaN,NaN,17.700, NaN,NaN,NaN, NaN, NaN,NaN
20041109,000931,546536,32.846420,-119.082437,3.7,17.537,33.223,43.516,1046.71,0.0,0.200, NaN, NaN, NaN,23.985,   NaN,16.19,1016.85,75.53,15.94,308.2,307.5,5.5,6.1,293.1,299.4,5.2,5.5,NaN, NaN,27.7,61.0,60.2,1099958971,1099958970,1,13.1,000571,000570,62.9,32.846450,-119.082488,NaN,NaN,NaN,17.698, NaN,NaN,NaN, NaN, NaN,NaN
20041109,001002,546568,32.847333,-119.080555,3.7,17.534,33.224,43.516,1024.39,0.0,0.196, NaN, NaN, NaN,23.986,   NaN,16.20,1016.83,75.98,15.99,305.2,304.5,5.7,6.3,293.8,299.6,5.5,5.8,NaN, NaN,27.7,63.2,60.0,1099959002,1099959000,1,13.1,000601,000600,62.8,32.847356,-119.080607,NaN,NaN,NaN,17.696, NaN,NaN,NaN, NaN, NaN,NaN
20041109,001031,546596,32.848240,-119.078670,3.7,17.532,33.225,43.515,1007.29,0.0,0.201, NaN, NaN, NaN,23.987,   NaN,16.19,1016.90,75.58,15.96,303.0,302.3,5.8,6.5,294.5,300.3,5.8,6.1,NaN, NaN,27.0,59.2,60.2,1099959031,1099959030,1,13.1,000631,000630,62.2,32.848260,-119.078720,NaN,NaN,NaN,17.694, NaN,NaN,NaN, NaN, NaN,NaN
20041109,001102,546627,32.849168,-119.076792,3.7,17.530,33.225,43.513,996.10,0.0,0.203, NaN, NaN, NaN,23.988,   NaN,16.14,1016.85,75.55,15.91,302.0,301.0,5.7,6.4,293.0,298.7,5.9,6.2,NaN, NaN,27.2,55.7,60.1,1099959062,1099959060,1,13.2,000661,000660,62.4,32.849178,-119.076845,NaN,NaN,NaN,17.692, NaN,NaN,NaN, NaN, NaN,NaN
20041109,001131,546657,32.850103,-119.074922,3.7,17.527,33.225,43.510,979.28,0.0,0.201, NaN, NaN, NaN,23.988,   NaN,16.14,1016.85,75.48,15.91,300.7,300.0,5.9,6.6,294.0,299.4,6.1,6.5,NaN, NaN,27.1,58.5,59.2,1099959091,1099959090,1,13.2,000691,000690,62.3,32.850116,-119.074982,NaN,NaN,NaN,17.689, NaN,NaN,NaN, NaN, NaN,NaN
20041109,001202,546687,32.851073,-119.072993,3.7,17.524,33.226,43.508,950.38,0.0,0.204, NaN, NaN, NaN,23.990,   NaN,16.14,1016.85,76.16,15.91,299.9,299.1,6.1,6.9,295.4,300.8,6.3,6.7,NaN, NaN,27.1,60.0,59.4,1099959122,1099959120,1,13.2,000722,000720,62.5,32.851050,-119.073113,NaN,NaN,NaN,17.686, NaN,NaN,NaN, NaN, NaN,NaN
20041109,001231,546716,32.851981,-119.071183,3.7,17.522,33.227,43.508,931.00,0.0,0.201, NaN, NaN, NaN,23.991,   NaN,16.15,1016.86,76.31,15.91,299.1,298.1,6.2,7.0,295.8,301.3,6.4,6.8,NaN, NaN,27.3,59.4,59.8,1099959151,1099959150,1,13.2,000751,000750,63.2,32.851990,-119.071243,NaN,NaN,NaN,17.684, NaN,NaN,NaN, NaN, NaN,NaN
20041109,001301,546746,32.852925,-119.069228,3.7,17.521,33.228,43.508,892.89,0.0,0.204, NaN, NaN, NaN,23.992,   NaN,16.14,1016.79,76.46,15.88,298.7,297.6,6.1,6.9,294.8,300.6,6.3,6.8,NaN, NaN,27.0,59.5,60.5,1099959182,1099959180,1,13.2,000782,000780,64.0,32.852903,-119.069357,NaN,NaN,NaN,17.683, NaN,NaN,NaN, NaN, NaN,NaN
20041109,001331,546776,32.853800,-119.067388,3.7,17.521,33.229,43.510,870.14,0.0,0.203, NaN, NaN, NaN,23.993,   NaN,16.16,1016.80,76.78,15.91,297.8,296.6,6.0,6.8,294.0,299.8,6.4,6.9,NaN, NaN,27.1,59.9,60.6,1099959211,1099959210,1,13.2,000811,000810,63.2,32.853808,-119.067462,NaN,NaN,NaN,17.683, NaN,NaN,NaN, NaN, NaN,NaN
20041109,001402,546807,32.854708,-119.065493,3.7,17.520,33.230,43.510,681.25,0.0,0.201, NaN, NaN, NaN,23.995,   NaN,16.11,1016.82,76.52,15.84,297.7,296.2,6.1,6.9,295.0,300.3,6.5,7.0,NaN, NaN,27.2,61.2,60.3,1099959242,1099959240,1,13.2,000841,000840,62.8,32.854705,-119.065543,NaN,NaN,NaN,17.682, NaN,NaN,NaN, NaN, NaN,NaN
20041109,001431,546837,32.855635,-119.063607,3.7,17.517,33.233,43.511,551.49,0.0,0.199, NaN, NaN, NaN,23.997,   NaN,16.09,1016.81,76.62,15.88,298.7,297.3,6.0,6.7,294.1,299.4,6.3,6.8,NaN, NaN,27.9,59.5,60.0,1099959271,1099959270,1,13.2,000871,000870,62.9,32.855631,-119.063652,NaN,NaN,NaN,17.679, NaN,NaN,NaN, NaN, NaN,NaN
20041109,001502,546867,32.856553,-119.061713,3.7,17.513,33.234,43.508,385.06,0.0,0.198, NaN, NaN, NaN,23.999,   NaN,16.07,1016.81,77.00,15.84,299.7,298.5,5.7,6.4,292.1,297.6,6.1,6.5,NaN, NaN,27.4,61.5,59.9,1099959301,1099959300,1,13.2,000901,000900,62.7,32.856560,-119.061772,NaN,NaN,NaN,17.675, NaN,NaN,NaN, NaN, NaN,NaN
20041109,001531,546896,32.857465,-119.059833,3.7,17.505,33.236,43.502,497.15,0.0,0.198, NaN, NaN, NaN,24.002,   NaN,16.11,1016.86,77.39,15.88,301.5,300.3,5.7,6.4,292.7,298.3,5.9,6.3,NaN, NaN,25.7,61.5,59.9,1099959331,1099959330,1,13.1,000931,000930,62.7,32.857470,-119.059882,NaN,NaN,NaN,17.667, NaN,NaN,NaN, NaN, NaN,NaN
20041109,001602,546928,32.858413,-119.057875,3.7,17.498,33.237,43.497,337.41,0.0,0.197, NaN, NaN, NaN,24.005,   NaN,16.03,1016.77,76.32,15.78,303.0,301.6,5.9,6.6,294.6,300.2,5.9,6.3,NaN, NaN,25.3,61.5,59.8,1099959362,1099959360,1,13.3,000962,000960,62.8,32.858385,-119.057978,NaN,NaN,NaN,17.660, NaN,NaN,NaN, NaN, NaN,NaN
20041109,001631,546956,32.859303,-119.056050,3.7,17.494,33.239,43.495,384.14,0.0,0.196, NaN, NaN, NaN,24.007,   NaN,16.07,1016.79,76.95,15.75,302.2,300.9,5.8,6.5,293.5,299.2,5.9,6.3,NaN, NaN,24.7,57.7,60.1,1099959391,1099959390,1,13.2,000991,000990,62.7,32.859273,-119.056153,NaN,NaN,NaN,17.656, NaN,NaN,NaN, NaN, NaN,NaN
20041109,001702,546987,32.860230,-119.054155,3.7,17.490,33.240,43.493,649.90,0.0,0.202, NaN, NaN, NaN,24.009,   NaN,16.03,1016.81,77.33,15.78,302.1,301.1,5.7,6.4,292.1,298.2,5.9,6.3,NaN, NaN,25.8,59.3,59.7,1099959422,1099959420,1,13.3,001021,001020,62.6,32.860243,-119.054208,NaN,NaN,NaN,17.652, NaN,NaN,NaN, NaN, NaN,NaN
20041109,001732,547017,32.861183,-119.052207,3.7,17.488,33.231,43.480,801.15,0.0,0.207, NaN, NaN, NaN,24.003,   NaN,16.03,1016.81,76.65,15.75,303.0,302.1,6.0,6.7,295.2,301.3,5.9,6.3,NaN, NaN,25.8,61.3,59.7,1099959452,1099959450,1,13.2,001052,001050,62.5,32.861173,-119.052315,NaN,NaN,NaN,17.650, NaN,NaN,NaN, NaN, NaN,NaN
20041109,001802,547047,32.862111,-119.050310,3.7,17.484,33.244,43.492,797.51,0.0,0.210, NaN, NaN, NaN,24.014,   NaN,15.99,1016.84,76.43,15.72,305.0,304.2,6.3,7.1,298.7,305.0,5.8,6.2,NaN, NaN,25.6,62.3,59.5,1099959482,1099959480,1,13.3,001082,001080,62.1,32.862105,-119.050422,NaN,NaN,NaN,17.646, NaN,NaN,NaN, NaN, NaN,NaN
20041109,001831,547076,32.863011,-119.048477,3.7,17.478,33.247,43.490,783.77,0.0,0.212, NaN, NaN, NaN,24.017,   NaN,16.02,1016.79,76.77,15.72,305.5,304.9,6.3,7.1,299.2,305.2,5.8,6.2,NaN, NaN,25.3,58.9,59.8,1099959511,1099959510,1,13.3,001111,001110,62.4,32.863036,-119.048522,NaN,NaN,NaN,17.640, NaN,NaN,NaN, NaN, NaN,NaN
20041109,001902,547107,32.863960,-119.046510,3.7,17.472,33.250,43.488,787.96,0.0,0.216, NaN, NaN, NaN,24.021,   NaN,16.01,1016.83,76.14,15.62,306.2,305.3,6.3,7.0,299.4,305.3,5.7,6.1,NaN, NaN,24.8,60.8,60.2,1099959542,1099959540,1,13.3,001142,001140,62.4,32.863960,-119.046620,NaN,NaN,NaN,17.635, NaN,NaN,NaN, NaN, NaN,NaN
20041109,001932,547137,32.864886,-119.044610,3.7,17.463,33.252,43.482,770.69,0.0,0.220, NaN, NaN, NaN,24.025,   NaN,15.98,1016.82,76.02,15.62,306.2,305.1,6.2,7.0,298.9,305.1,5.7,6.1,NaN, NaN,25.4,62.0,59.8,1099959572,1099959570,1,13.3,001172,001170,62.2,32.864886,-119.044725,NaN,NaN,NaN,17.626, NaN,NaN,NaN, NaN, NaN,NaN
20041109,002003,547169,32.865845,-119.042650,3.7,17.453,33.256,43.477,741.53,0.0,0.225, NaN, NaN, NaN,24.030,   NaN,15.98,1016.82,75.94,15.57,304.4,303.1,6.2,7.0,298.1,304.0,5.9,6.3,NaN, NaN,25.6,60.5,60.2,1099959603,1099959600,1,13.2,001203,001200,62.6,32.865808,-119.042830,NaN,NaN,NaN,17.616, NaN,NaN,NaN, NaN, NaN,NaN
20041109,002032,547197,32.866736,-119.040813,3.7,17.445,33.258,43.473,447.82,0.0,0.224, NaN, NaN, NaN,24.034,   NaN,16.04,1016.79,76.74,15.65,304.0,302.8,6.3,7.1,298.6,304.5,6.0,6.4,NaN, NaN,25.7,58.5,60.1,1099959632,1099959630,1,13.3,001232,001230,63.0,32.866733,-119.040940,NaN,NaN,NaN,17.608, NaN,NaN,NaN, NaN, NaN,NaN
20041109,002102,547228,32.867656,-119.038915,3.8,17.435,33.262,43.468,339.13,0.0,0.234, NaN, NaN, NaN,24.040,   NaN,16.00,1016.83,75.93,15.62,302.5,301.0,6.2,7.0,297.4,302.8,6.1,6.5,NaN, NaN,25.8,61.2,59.9,1099959662,1099959660,1,13.2,001262,001260,62.8,32.867645,-119.039050,NaN,NaN,NaN,17.598, NaN,NaN,NaN, NaN, NaN,NaN
20041109,002133,547258,32.868613,-119.036950,3.7,17.420,33.265,43.458,391.22,0.0,0.237, NaN, NaN, NaN,24.046,   NaN,16.00,1016.83,76.51,15.65,303.3,302.1,6.1,6.8,296.8,302.3,5.9,6.4,NaN, NaN,26.3,60.2,60.0,1099959693,1099959690,1,13.3,001293,001290,62.8,32.868570,-119.037147,NaN,NaN,NaN,17.583, NaN,NaN,NaN, NaN, NaN,NaN
20041109,002203,547288,32.869536,-119.035055,3.7,17.408,33.268,43.450,625.80,0.0,0.249, NaN, NaN, NaN,24.050,   NaN,15.99,1016.79,76.88,15.65,304.1,302.8,5.9,6.6,294.3,300.1,5.8,6.2,NaN, NaN,26.4,58.3,60.3,1099959723,1099959720,1,13.3,001323,001320,63.1,32.869500,-119.035247,NaN,NaN,NaN,17.572, NaN,NaN,NaN, NaN, NaN,NaN
20041109,002233,547319,32.870458,-119.033157,3.7,17.396,33.270,43.441,707.51,0.0,0.257, NaN, NaN, NaN,24.055,   NaN,16.05,1016.86,76.86,15.72,305.3,303.9,5.9,6.6,295.4,301.3,5.7,6.1,NaN, NaN,25.9,57.2,59.9,1099959753,1099959750,1,13.2,001353,001350,62.8,32.870420,-119.033355,NaN,NaN,NaN,17.560, NaN,NaN,NaN, NaN, NaN,NaN
20041109,002303,547348,32.871375,-119.031260,3.7,17.381,33.270,43.427,709.19,0.0,0.255, NaN, NaN, NaN,24.059,   NaN,15.96,1016.84,76.05,15.62,306.4,305.6,6.1,6.8,297.9,304.1,5.6,6.0,NaN, NaN,25.9,63.5,60.0,1099959783,1099959780,1,13.3,001383,001380,62.7,32.871348,-119.031460,NaN,NaN,NaN,17.545, NaN,NaN,NaN, NaN, NaN,NaN
20041109,002332,547377,32.872261,-119.029428,3.7,17.365,33.271,43.412,699.26,0.0,0.263, NaN, NaN, NaN,24.063,   NaN,16.01,1016.86,76.75,15.62,305.7,305.1,6.2,6.9,298.8,304.5,5.7,6.1,NaN, NaN,25.5,58.0,60.4,1099959812,1099959810,1,13.2,001412,001410,63.2,32.872266,-119.029563,NaN,NaN,NaN,17.529, NaN,NaN,NaN, NaN, NaN,NaN
20041109,002403,547408,32.873183,-119.027528,3.7,17.347,33.271,43.397,686.92,0.0,0.267, NaN, NaN, NaN,24.067,   NaN,15.98,1016.89,76.78,15.65,305.1,304.1,6.2,6.8,298.1,303.4,5.8,6.1,NaN, NaN,26.0,59.3,60.3,1099959843,1099959840,1,13.2,001442,001440,63.1,32.873185,-119.027665,NaN,NaN,NaN,17.512, NaN,NaN,NaN, NaN, NaN,NaN
20041109,002432,547437,32.874093,-119.025623,3.7,17.334,33.273,43.386,674.05,0.0,0.276, NaN, NaN, NaN,24.072,   NaN,15.98,1016.89,76.64,15.65,304.4,303.5,6.1,6.8,297.3,303.0,5.8,6.2,NaN, NaN,25.8,61.2,60.3,1099959872,1099959870,1,13.2,001472,001470,63.1,32.874081,-119.025757,NaN,NaN,NaN,17.499, NaN,NaN,NaN, NaN, NaN,NaN
20041109,002503,547468,32.875051,-119.023663,3.7,17.319,33.273,43.371,658.36,0.0,0.279, NaN, NaN, NaN,24.075,   NaN,16.02,1016.88,77.01,15.65,304.0,303.2,5.9,6.6,295.4,301.0,5.8,6.1,NaN, NaN,25.3,62.1,60.0,1099959903,1099959900,1,13.3,001503,001500,63.0,32.875000,-119.023850,NaN,NaN,NaN,17.484, NaN,NaN,NaN, NaN, NaN,NaN
20041109,002532,547497,32.875945,-119.021828,3.7,17.307,33.274,43.361,648.36,0.0,0.290, NaN, NaN, NaN,24.079,   NaN,15.98,1016.89,76.58,15.62,305.0,304.2,6.0,6.7,296.5,302.3,5.8,6.1,NaN, NaN,25.7,58.6,59.6,1099959932,1099959930,1,13.2,001532,001530,61.6,32.875930,-119.021955,NaN,NaN,NaN,17.472, NaN,NaN,NaN, NaN, NaN,NaN
20041109,002603,547528,32.876916,-119.019888,3.7,17.297,33.277,43.355,630.08,0.0,0.299, NaN, NaN, NaN,24.083,   NaN,15.95,1016.87,76.18,15.57,305.4,304.4,6.1,6.8,297.2,302.7,5.7,6.1,NaN, NaN,25.4,58.8,59.2,1099959963,1099959960,1,13.2,001563,001560,61.4,32.876870,-119.020068,NaN,NaN,NaN,17.462, NaN,NaN,NaN, NaN, NaN,NaN
20041109,002632,547557,32.877821,-119.018070,3.7,17.286,33.278,43.347,611.50,0.0,0.306, NaN, NaN, NaN,24.087,   NaN,15.98,1016.87,76.63,15.57,304.0,302.9,5.9,6.6,294.4,300.1,5.8,6.2,NaN, NaN,25.8,59.7,59.7,1099959992,1099959990,1,13.2,001592,001590,61.7,32.877821,-119.018192,NaN,NaN,NaN,17.452, NaN,NaN,NaN, NaN, NaN,NaN
20041109,002703,547588,32.878793,-119.016118,3.7,17.277,33.279,43.339,600.52,0.0,0.306, NaN, NaN, NaN,24.090,   NaN,16.04,1016.93,77.25,15.72,305.8,305.0,5.7,6.4,293.3,299.9,5.5,5.9,NaN, NaN,26.5,61.2,60.2,1099960023,1099960020,1,13.2,001623,001620,62.7,32.878760,-119.016303,NaN,NaN,NaN,17.443, NaN,NaN,NaN, NaN, NaN,NaN
20041109,002732,547617,32.879690,-119.014290,3.7,17.270,33.280,43.334,505.92,0.0,0.305, NaN, NaN, NaN,24.092,   NaN,16.01,1016.91,76.86,15.65,307.5,306.4,5.9,6.5,295.6,301.6,5.4,5.8,NaN, NaN,24.7,59.4,60.2,1099960052,1099960050,1,13.2,001652,001650,63.2,32.879681,-119.014402,NaN,NaN,NaN,17.436, NaN,NaN,NaN, NaN, NaN,NaN
20041109,002803,547649,32.880643,-119.012325,3.7,17.261,33.282,43.328,560.76,0.0,0.314, NaN, NaN, NaN,24.096,   NaN,15.98,1016.92,76.96,15.65,307.0,306.1,6.0,6.7,297.3,303.1,5.5,5.9,NaN, NaN,24.5,61.2,60.1,1099960083,1099960080,1,13.3,001683,001680,62.8,32.880606,-119.012492,NaN,NaN,NaN,17.427, NaN,NaN,NaN, NaN, NaN,NaN
20041109,002833,547679,32.881568,-119.010423,3.7,17.249,33.284,43.319,544.54,0.0,0.332, NaN, NaN, NaN,24.101,   NaN,15.98,1016.91,76.65,15.65,304.9,304.0,6.0,6.6,295.9,301.5,5.7,6.0,NaN, NaN,24.4,61.6,60.2,1099960113,1099960110,1,13.3,001713,001710,63.1,32.881530,-119.010582,NaN,NaN,NaN,17.415, NaN,NaN,NaN, NaN, NaN,NaN
20041109,002903,547708,32.882488,-119.008510,3.7,17.234,33.286,43.306,527.23,0.0,0.335, NaN, NaN, NaN,24.105,   NaN,15.98,1016.91,77.34,15.65,304.8,303.8,5.9,6.6,295.2,301.1,5.7,6.1,NaN, NaN,24.4,62.7,60.4,1099960143,1099960140,1,13.3,001743,001740,63.5,32.882450,-119.008675,NaN,NaN,NaN,17.400, NaN,NaN,NaN, NaN, NaN,NaN
20041109,002933,547738,32.883406,-119.006605,3.7,17.215,33.287,43.290,514.99,0.0,0.344, NaN, NaN, NaN,24.110,   NaN,15.94,1016.91,76.61,15.60,306.0,304.9,5.8,6.5,294.5,300.6,5.6,5.9,NaN, NaN,24.8,60.9,60.6,1099960173,1099960170,1,13.3,001773,001770,63.3,32.883373,-119.006773,NaN,NaN,NaN,17.382, NaN,NaN,NaN, NaN, NaN,NaN
20041109,003003,547768,32.884285,-119.004747,3.8,17.202,33.287,43.278,500.37,0.0,0.351, NaN, NaN, NaN,24.114,   NaN,15.98,1016.91,76.67,15.62,306.6,305.3,5.7,6.3,293.5,299.6,5.5,5.8,NaN, NaN,24.7,61.2,60.7,1099960203,1099960200,1,13.4,001802,001800,63.4,32.884293,-119.004863,NaN,NaN,NaN,17.369, NaN,NaN,NaN, NaN, NaN,NaN
20041109,003034,547799,32.885235,-119.002775,3.7,17.184,33.286,43.260,492.41,0.0,0.371, NaN, NaN, NaN,24.117,   NaN,15.98,1016.93,76.97,15.57,305.0,303.9,5.8,6.5,293.9,300.0,5.7,6.0,NaN, NaN,25.1,59.3,60.7,1099960233,1099960230,1,13.2,001833,001830,62.9,32.885201,-119.002952,NaN,NaN,NaN,17.351, NaN,NaN,NaN, NaN, NaN,NaN
20041109,003103,547829,32.886145,-119.000865,3.7,17.158,33.284,43.233,475.84,0.0,0.396, NaN, NaN, NaN,24.121,   NaN,15.98,1016.95,76.74,15.62,303.3,302.6,6.0,6.6,295.3,300.8,5.9,6.3,NaN, NaN,25.0,58.6,60.1,1099960263,1099960260,1,13.2,001863,001860,62.6,32.886123,-119.001035,NaN,NaN,NaN,17.326, NaN,NaN,NaN, NaN, NaN,NaN
20041109,003133,547858,32.887071,-118.998970,3.7,17.116,33.281,43.189,459.85,0.0,0.417, NaN, NaN, NaN,24.129,   NaN,15.95,1016.96,76.52,15.54,303.7,302.9,6.1,6.9,296.9,302.7,5.9,6.3,NaN, NaN,24.7,59.6,59.9,1099960293,1099960290,1,13.2,001893,001890,62.5,32.887045,-118.999138,NaN,NaN,NaN,17.284, NaN,NaN,NaN, NaN, NaN,NaN
20041109,003203,547888,32.888001,-118.997073,3.7,17.087,33.282,43.164,463.16,0.0,0.425, NaN, NaN, NaN,24.136,   NaN,15.94,1016.94,76.23,15.54,303.5,302.6,6.1,6.8,296.5,302.1,5.9,6.3,NaN, NaN,24.7,61.9,59.4,1099960323,1099960320,1,13.3,001923,001920,61.5,32.887960,-118.997241,NaN,NaN,NaN,17.256, NaN,NaN,NaN, NaN, NaN,NaN
20041109,003233,547918,32.888943,-118.995191,3.7,17.074,33.284,43.154,444.11,0.0,0.417, NaN, NaN, NaN,24.141,   NaN,15.97,1016.98,76.25,15.62,301.7,300.3,5.9,6.6,294.1,299.4,6.1,6.5,NaN, NaN,24.9,58.4,59.9,1099960353,1099960350,1,13.2,001953,001950,60.9,32.888888,-118.995360,NaN,NaN,NaN,17.243, NaN,NaN,NaN, NaN, NaN,NaN
20041109,003302,547947,32.889896,-118.993315,3.7,17.057,33.281,43.135,430.98,0.0,0.450, NaN, NaN, NaN,24.143,   NaN,15.96,1016.96,76.63,15.57,300.9,299.5,5.7,6.4,291.6,296.8,6.1,6.5,NaN, NaN,24.8,58.1,58.8,1099960383,1099960380,1,13.2,001983,001980,61.0,32.889843,-118.993486,NaN,NaN,NaN,17.226, NaN,NaN,NaN, NaN, NaN,NaN
20041109,003333,547979,32.890855,-118.991453,3.7,17.019,33.278,43.096,421.51,0.0,0.466, NaN, NaN, NaN,24.150,   NaN,16.01,1016.97,76.84,15.65,303.5,302.4,5.8,6.5,292.6,298.5,5.8,6.2,NaN, NaN,25.1,58.3,59.4,1099960413,1099960410,1,13.2,002013,002010,62.1,32.890790,-118.991615,NaN,NaN,NaN,17.189, NaN,NaN,NaN, NaN, NaN,NaN
20041109,003404,548009,32.891813,-118.989498,3.7,16.989,33.281,43.071,404.71,0.0,0.467, NaN, NaN, NaN,24.159,   NaN,15.94,1016.98,76.31,15.57,304.4,303.3,6.0,6.7,295.1,301.0,5.8,6.2,NaN, NaN,25.3,56.9,59.5,1099960444,1099960440,1,13.2,002044,002045,62.4,32.891880,-118.989416,NaN,NaN,NaN,17.159, NaN,NaN,NaN, NaN, NaN,NaN
20041109,003433,548038,32.892705,-118.987670,3.7,16.985,33.287,43.073,396.63,0.0,0.467, NaN, NaN, NaN,24.164,   NaN,15.98,1016.96,76.64,15.54,304.3,303.2,6.0,6.6,295.4,301.1,5.8,6.2,NaN, NaN,25.2,61.1,60.0,1099960473,1099960470,1,13.2,002073,002070,62.8,32.892648,-118.987843,NaN,NaN,NaN,17.155, NaN,NaN,NaN, NaN, NaN,NaN
20041109,003504,548070,32.893648,-118.985703,3.7,16.979,33.287,43.069,382.31,0.0,0.479, NaN, NaN, NaN,24.166,   NaN,15.96,1016.98,76.77,15.62,304.7,303.8,5.9,6.6,295.7,301.1,5.7,6.0,NaN, NaN,25.1,60.6,60.9,1099960504,1099960500,1,13.2,002104,002105,63.6,32.893721,-118.985618,NaN,NaN,NaN,17.150, NaN,NaN,NaN, NaN, NaN,NaN
20041109,003533,548098,32.894525,-118.983861,3.7,16.952,33.284,43.038,377.45,0.0,0.510, NaN, NaN, NaN,24.169,   NaN,15.95,1016.96,76.76,15.62,304.3,303.7,6.1,6.8,297.3,303.3,5.8,6.2,NaN, NaN,25.4,61.9,60.0,1099960533,1099960530,1,13.2,002133,002130,62.9,32.894503,-118.984030,NaN,NaN,NaN,17.123, NaN,NaN,NaN, NaN, NaN,NaN
20041109,003603,548128,32.895428,-118.981955,3.7,16.915,33.283,43.004,351.55,0.0,0.534, NaN, NaN, NaN,24.177,   NaN,15.92,1017.02,76.54,15.51,303.4,302.7,6.0,6.8,296.6,302.8,5.9,6.3,NaN, NaN,25.4,63.1,61.0,1099960563,1099960560,1,13.2,002163,002160,63.2,32.895403,-118.982121,NaN,NaN,NaN,17.087, NaN,NaN,NaN, NaN, NaN,NaN
20041109,003633,548159,32.896321,-118.980045,3.7,16.900,33.290,42.998,335.40,0.0,0.540, NaN, NaN, NaN,24.186,   NaN,15.91,1016.98,76.73,15.54,303.4,302.7,5.9,6.6,295.1,301.3,5.8,6.2,NaN, NaN,25.1,59.9,61.2,1099960593,1099960590,1,13.2,002193,002190,63.2,32.896288,-118.980203,NaN,NaN,NaN,17.072, NaN,NaN,NaN, NaN, NaN,NaN